Miscellaneous Local Product
Issued by NWS Hastings, NE

Home | Current Version | Previous Version | Text Only | Print | Product List | Glossary On
Versions: 1 2 3 4 5 6 7 8 9 10 11 12 13 14 15 16 17 18 19 20 21 22 23 24 25 26 27 28 29 30 31 32 33 34 35 36 37 38 39 40 41 42 43 44 45 46 47 48 49 50
000
AXUS43 KGID 310802
MISGRI

GID CWA HOURLY WEATHER ROUNDUP
NATIONAL WEATHER SERVICE HASTINGS NE
300 AM CDT SUN JUL 31 2016

NOTE: "FAIR" INDICATES FEW OR NO CLOUDS BELOW 12,000 FEET WITH NO
SIGNIFICANT WEATHER AND/OR OBSTRUCTIONS TO VISIBILITY.

...SOUTH CENTRAL NEBRASKA...

CITY           SKY/WX    TMP DP  RH WIND       PRES   REMARKS
GRAND ISLAND   CLEAR     69  67  93 S14       29.89F
HASTINGS       CLOUDY    69  67  93 SE10      29.91F
KEARNEY        CLOUDY    68  66  94 SE7       29.90F
ORD            CLOUDY    68  65  90 E5        29.90R
YORK           CLEAR     68  66  94 SE8       29.92F
AURORA         CLEAR     68  67  98 S10       29.91F
LEXINGTON      PTCLDY    70  68  91 SE8       29.89S
HOLDREGE       CLOUDY    69  67  94 SE7       29.89F
HEBRON         CLOUDY    70  67  90 SE5       29.90F

...NEBRASKA PANHANDLE...

CITY           SKY/WX    TMP DP  RH WIND       PRES   REMARKS
CHADRON        CLEAR     68  57  68 SE16      29.86F
ALLIANCE       CLOUDY    68  63  84 E14       29.89F
SCOTTSBLUFF    PTCLDY    69  63  81 E14       29.87S
SIDNEY         CLOUDY    70  63  78 S12       29.91F

...WESTERN AND NORTH CENTRAL NEBRASKA...

CITY           SKY/WX    TMP DP  RH WIND       PRES   REMARKS
VALENTINE      LGT RAIN  66  61  84 VRB5      29.93F
AINSWORTH      TSTM      66  64  93 NW16      29.99F
ONEILL         PTCLDY    69  67  92 S7        29.93R
BROKEN BOW     CLOUDY    68  67  96 S6        29.91S
IMPERIAL       CLEAR     69  66  90 SE8       29.88F
NORTH PLATTE   CLEAR     69  67  93 E8        29.88F
MCCOOK         CLOUDY    72  65  78 SE14      29.86F

...EASTERN NEBRASKA...

CITY           SKY/WX    TMP DP  RH WIND       PRES   REMARKS
NORFOLK        CLOUDY    68  65  90 SE12      29.92F
SO SIOUX CITY  MOCLDY    68  63  84 SE6       29.93F
TEKAMAH        MOCLDY    68  64  87 SE5       29.94S
COLUMBUS       MOCLDY    70  61  73 SE8       29.93F
ALBION         CLOUDY    67  64  92 SE6       29.92S
OMAHA EPPLEY   MOCLDY    73  63  70 S10       29.94F
OFFUTT AFB     CLOUDY    70  65  84 E6        29.94F
MILLARD        CLOUDY    73  66  79 SE3       29.94S
LINCOLN        CLEAR     72  68  87 SE8       29.93F
NEBRASKA CITY  CLEAR     68  67  97 SE6       29.95F
BEATRICE       CLEAR     71  67  87 SE9       29.91F
FALLS CITY     CLEAR     68  66  93 SE5       29.94F

...NORTHERN KANSAS...

CITY           SKY/WX    TMP DP  RH WIND       PRES   REMARKS
GOODLAND       CLEAR     70  62  76 SW8       29.88F
HILL CITY      CLOUDY    69  65  86 SE8G24    29.90R
NORTON         LGT RAIN  68  57  68 SE16G22   29.87F
SMITH CENTER   PTCLDY    72  68  88 S13       29.89F
BELOIT         CLOUDY    72  70  94 SE16G25   29.93R VSB 1/2
HAYS           CLOUDY    75  66  73 S9        29.87S
RUSSELL        CLOUDY    75  70  84 S17       29.85F
CONCORDIA      CLOUDY    72  69  90 E5        29.90F
SALINA         CLOUDY    78  71  79 SE12      29.87F
TOPEKA         CLEAR     73  69  87 E3        29.94S



USA.gov is the U.S. government's official web portal to all federal, state and local government web resources and services.